Togiak, AK

1:47 AM AKST on November 19, 2017 (GMT -0900)
Togiak

Weather History for PATG - October, 2011

Change the Weather History Date:

Thursday, October 13, 2011

  Actual Average Record
Temperature  
Mean Temperature 42 °F -  
Max Temperature 46 °F 38 °F 60 °F (2016)
Min Temperature 39 °F 27 °F 15 °F (1996)
Degree Days  
Heating Degree Days 22    
Moisture  
Dew Point 41 °F    
Average Humidity 90    
Maximum Humidity 100    
Minimum Humidity 76    
Precipitation  
Precipitation 0.00 in - - ()
Sea Level Pressure  
Sea Level Pressure 29.70 in    
Wind  
Wind Speed 11 mph (South)    
Max Wind Speed 30 mph    
Max Gust Speed 39 mph    
Visibility 7 miles    
Events      
Averages and records for this station are not official NWS values.
T = Trace of Precipitation, MM = Missing Value Source: NWS Daily Summary

Daily Weather History Graph

Daily Weather History Graph

Search for Another Location

Airport or City:

Trip Planner

Search our weather history database for the weather conditions in past years. The results will help you decide how hot, cold, wet, or windy it might be!

Date:

Astronomy

Oct. 13, 2011 Rise Set
Actual Time 9:14 AM AKDT 7:40 PM AKDT
Civil Twilight 8:33 AM AKDT 8:21 PM AKDT
Nautical Twilight 7:46 AM AKDT 9:07 PM AKDT
Astronomical Twilight 6:58 AM AKDT 9:55 PM AKDT
Moon 7:37 PM AKDT (10/13) 11:39 AM AKDT (10/13)
Length of Visible Light 11h 47m
Length of Day
10h 26m
Full, 97% of the Moon is Illuminated
Oct 13
Full
Oct 19
Last Quarter
Oct 26
New
Nov 2
First Quarter
Nov 10
Full

Hourly Weather History & Observations

Time (AKDT) Temp. Windchill Dew Point Humidity Pressure Visibility Wind Dir Wind Speed Gust Speed Precip Events Conditions
12:36 AM 42.8 °F 36.6 °F 42.8 °F 100% 29.84 in 1.5 mi SW 11.5 mph - N/A   Overcast
12:56 AM 42.8 °F 37.5 °F 41.0 °F 93% 29.84 in 2.5 mi SW 9.2 mph - N/A   Overcast
1:16 AM 44.6 °F 39.7 °F 42.8 °F 93% 29.85 in 9.0 mi SW 9.2 mph - N/A   Overcast
1:36 AM 42.8 °F 39.3 °F 41.0 °F 93% 29.85 in 4.0 mi SSW 5.8 mph - N/A   Overcast
1:56 AM 42.8 °F 36.6 °F 42.8 °F 100% 29.85 in 9.0 mi SSW 11.5 mph - N/A   Overcast
2:16 AM 42.8 °F 35.8 °F 41.0 °F 93% 29.85 in 10.0 mi WSW 13.8 mph - N/A   Mostly Cloudy
2:36 AM 42.8 °F 37.5 °F 39.2 °F 87% 29.86 in 10.0 mi WSW 9.2 mph - N/A   Partly Cloudy
2:56 AM 41.0 °F 35.8 °F 39.2 °F 93% 29.86 in 10.0 mi WSW 8.1 mph - N/A   Clear
3:16 AM 39.2 °F 37.0 °F 37.4 °F 93% 29.86 in 9.0 mi NW 3.5 mph - N/A   Scattered Clouds
3:36 AM 41.0 °F 36.4 °F 37.4 °F 87% 29.86 in 9.0 mi WSW 6.9 mph - N/A   Mostly Cloudy
3:56 AM 41.0 °F 36.4 °F 37.4 °F 87% 29.86 in 10.0 mi WSW 6.9 mph - N/A   Overcast
4:16 AM 41.0 °F 38.0 °F 37.4 °F 87% 29.86 in 9.0 mi WSW 4.6 mph - N/A   Overcast
4:36 AM 41.0 °F 39.0 °F 37.4 °F 87% 29.86 in 8.0 mi SSE 3.5 mph - N/A   Overcast
4:56 AM 42.8 °F 39.3 °F 39.2 °F 87% 29.86 in 9.0 mi SW 5.8 mph - N/A   Overcast
5:16 AM 42.8 °F - 39.2 °F 87% 29.86 in 9.0 mi Calm Calm - N/A   Overcast
5:36 AM 42.8 °F 40.1 °F 39.2 °F 87% 29.86 in 8.0 mi SW 4.6 mph - N/A   Overcast
5:56 AM 42.8 °F - 39.2 °F 87% 29.86 in 8.0 mi Calm Calm - N/A   Overcast
6:16 AM 42.8 °F - 39.2 °F 87% 29.86 in 8.0 mi Calm Calm - N/A   Overcast
6:36 AM 42.8 °F - 39.2 °F 87% 29.86 in 6.0 mi Calm Calm - N/A   Overcast
6:56 AM 42.8 °F 40.1 °F 39.2 °F 87% 29.85 in 5.0 mi WSW 4.6 mph - N/A   Overcast
7:16 AM 42.8 °F 38.0 °F 39.2 °F 87% 29.85 in 5.0 mi SSW 8.1 mph - N/A   Overcast
7:36 AM 42.8 °F 38.6 °F 39.2 °F 87% 29.85 in 5.0 mi SW 6.9 mph - N/A   Overcast
7:56 AM 42.8 °F 38.0 °F 41.0 °F 93% 29.85 in 7.0 mi WSW 8.1 mph - N/A   Overcast
8:16 AM 42.8 °F 39.3 °F 39.2 °F 87% 29.84 in 7.0 mi SSW 5.8 mph - N/A   Overcast
8:36 AM 42.8 °F 37.0 °F 39.2 °F 87% 29.84 in 7.0 mi SSW 10.4 mph - N/A   Overcast
8:56 AM 42.8 °F 36.6 °F 39.2 °F 87% 29.84 in 8.0 mi SSW 11.5 mph - N/A   Overcast
9:16 AM 42.8 °F 37.5 °F 39.2 °F 87% 29.83 in 7.0 mi South 9.2 mph - N/A   Overcast
9:36 AM 42.8 °F 36.2 °F 39.2 °F 87% 29.83 in 8.0 mi SSW 12.7 mph - N/A   Overcast
9:56 AM 42.8 °F 35.1 °F 39.2 °F 87% 29.83 in 7.0 mi South 16.1 mph - N/A   Overcast
10:16 AM 42.8 °F 37.5 °F 39.2 °F 87% 29.83 in 7.0 mi South 9.2 mph - N/A   Overcast
10:36 AM 42.8 °F 36.2 °F 39.2 °F 87% 29.82 in 7.0 mi SSW 12.7 mph - N/A   Overcast
10:56 AM 44.6 °F 37.8 °F 41.0 °F 87% 29.81 in 6.0 mi SSW 15.0 mph - N/A   Overcast
11:16 AM 44.6 °F 38.4 °F 41.0 °F 87% 29.81 in 7.0 mi SSW 12.7 mph - N/A   Overcast
11:36 AM 44.6 °F 38.1 °F 41.0 °F 87% 29.80 in 7.0 mi South 13.8 mph - N/A   Overcast
11:56 AM 44.6 °F 38.4 °F 39.2 °F 81% 29.79 in 8.0 mi South 12.7 mph - N/A   Overcast
12:16 PM 44.6 °F 38.1 °F 39.2 °F 81% 29.78 in 9.0 mi South 13.8 mph - N/A   Overcast
12:36 PM 44.6 °F 38.1 °F 39.2 °F 81% 29.77 in 10.0 mi South 13.8 mph - N/A   Overcast
1:16 PM 44.6 °F 37.8 °F 39.2 °F 81% 29.76 in 10.0 mi SSE 15.0 mph - N/A   Mostly Cloudy
1:36 PM 44.6 °F 38.4 °F 37.4 °F 76% 29.75 in 10.0 mi SSE 12.7 mph - N/A   Scattered Clouds
1:56 PM 44.6 °F 39.2 °F 37.4 °F 76% 29.73 in 10.0 mi SE 10.4 mph - N/A   Scattered Clouds
2:16 PM 44.6 °F 38.4 °F 39.2 °F 81% 29.71 in 10.0 mi SE 12.7 mph - N/A   Overcast
2:36 PM 44.6 °F 36.9 °F 39.2 °F 81% 29.70 in 10.0 mi SE 18.4 mph - N/A   Overcast
2:56 PM 42.8 °F 35.4 °F 39.2 °F 87% 29.68 in 9.0 mi SE 15.0 mph - N/A   Overcast
3:16 PM 42.8 °F 35.1 °F 39.2 °F 87% 29.67 in 7.0 mi SE 16.1 mph - N/A   Overcast
3:36 PM 42.8 °F 35.1 °F 41.0 °F 93% 29.65 in 2.5 mi ESE 16.1 mph - N/A   Overcast
3:56 PM 42.8 °F 34.8 °F 41.0 °F 93% 29.62 in 3.0 mi ESE 17.3 mph - N/A   Overcast
4:16 PM 42.8 °F 35.4 °F 42.8 °F 100% 29.60 in 3.0 mi ESE 15.0 mph - N/A   Overcast
4:36 PM 42.8 °F 34.8 °F 42.8 °F 100% 29.57 in 4.0 mi ESE 17.3 mph - N/A   Overcast
4:56 PM 42.8 °F 35.4 °F 42.8 °F 100% 29.55 in 5.0 mi ESE 15.0 mph - N/A   Overcast
5:16 PM 44.6 °F 36.1 °F 44.6 °F 100% 29.52 in 5.0 mi SE 21.9 mph - N/A   Overcast
5:36 PM 44.6 °F 35.5 °F 44.6 °F 100% 29.49 in 5.0 mi SE 25.3 mph 31.1 mph N/A   Mostly Cloudy
5:56 PM 44.6 °F 35.5 °F 42.8 °F 93% 29.46 in 5.0 mi SE 25.3 mph 31.1 mph N/A   Overcast
6:16 PM 44.6 °F 36.1 °F 44.6 °F 100% 29.45 in 5.0 mi SE 21.9 mph - N/A   Overcast
6:36 PM 44.6 °F 36.4 °F 44.6 °F 100% 29.43 in 5.0 mi ESE 20.7 mph - N/A   Overcast
6:56 PM 46.4 °F 38.3 °F 44.6 °F 93% 29.40 in 5.0 mi ESE 23.0 mph - N/A   Overcast
7:16 PM 46.4 °F 37.9 °F 44.6 °F 93% 29.37 in 5.0 mi SE 25.3 mph - N/A   Overcast
7:36 PM 46.4 °F 37.5 °F 44.6 °F 93% 29.34 in 5.0 mi SE 27.6 mph 31.1 mph N/A   Overcast
7:56 PM 46.4 °F 37.7 °F 44.6 °F 93% 29.33 in 4.0 mi SE 26.5 mph 32.2 mph N/A   Overcast
8:16 PM - - - N/A% 29.30 in 3.0 mi SE 27.6 mph - N/A   Overcast
8:36 PM 46.4 °F 37.5 °F 44.6 °F 93% 29.29 in 2.5 mi SE 27.6 mph 32.2 mph N/A   Overcast
8:56 PM - - - N/A% 29.26 in 3.0 mi SE 29.9 mph 38.0 mph N/A   Overcast
9:16 PM 46.4 °F 37.5 °F 44.6 °F 93% 29.25 in 5.0 mi SE 27.6 mph - N/A   Overcast
9:36 PM - - - N/A% 29.23 in 4.0 mi SE 29.9 mph 39.1 mph N/A   Overcast
9:56 PM - - - N/A% 29.20 in 4.0 mi SE 33.4 mph 38.0 mph N/A   Overcast
10:16 PM - - - N/A% 29.19 in 4.0 mi SE 29.9 mph 36.8 mph N/A   Overcast
10:36 PM - - - N/A% 29.17 in 2.5 mi SE 32.2 mph 40.3 mph N/A   Overcast
10:56 PM - - - N/A% 29.14 in 3.0 mi SE 32.2 mph - N/A   Overcast
11:16 PM - - - N/A% 29.13 in 2.5 mi SE 28.8 mph 33.4 mph N/A   Mostly Cloudy
11:36 PM - - - N/A% 29.11 in 3.0 mi SE 29.9 mph - N/A   Overcast
11:56 PM - - - N/A% 29.09 in 4.0 mi SE 28.8 mph 36.8 mph N/A   Overcast